Die Wichtigste » das Wetter in Italien » Friaul-Julisch Venetien » Grado » Meteograms hourly weather

Grado, Meteogramm

Grado: stundensatz wetter
Montag, 03 August
Zeit Der Niederschlag Die Temperatur Fühlt Der Druck Die Feuchtigkeit Der Wind
12:00 0 mm +32.9° +33.6° 763 mmHg 40% 2 m/S, NO
13:00 0 mm +33.8° +34.4° 763 mmHg 38% 2 m/S, O
14:00 0 mm +33.6° +34.2° 763 mmHg 38% 2 m/S, O
15:00 0 mm +33.5° +34.2° 762 mmHg 39% 2 m/S, SO
16:00 0 mm +33.3° +34° 762 mmHg 39% 2 m/S, S
17:00 0 mm +31.3° +32.6° 762 mmHg 49% 2 m/S, S
18:00 0 mm +29.2° +31.1° 762 mmHg 59% 2 m/S, S
19:00 0 mm +27.1° +29.4° 763 mmHg 69% 1 m/S, SW
20:00 0 mm +25.9° +27.9° 763 mmHg 70% 2 m/S, NO
21:00 0 mm +24.6° +26.5° 763 mmHg 71% 2 m/S, NO
22:00 0 mm +23.4° +25.1° 764 mmHg 72% 2 m/S, NO
23:00 0 mm +23.3° +24.9° 763 mmHg 71% 2 m/S, NO
Dienstag, 04 August
Zeit Der Niederschlag Die Temperatur Fühlt Der Druck Die Feuchtigkeit Der Wind
00:00 0 mm +23.2° +24.7° 763 mmHg 71% 2 m/S, NO
01:00 0 mm +23.1° +24.5° 763 mmHg 70% 3 m/S, NO
02:00 0 mm +22.8° +24.3° 763 mmHg 71% 3 m/S, NO
03:00 0 mm +22.6° +24° 763 mmHg 71% 3 m/S, NO
04:00 0 mm +22.3° +23.7° 762 mmHg 72% 3 m/S, NO
05:00 0 mm +23.5° +24.9° 762 mmHg 69% 3 m/S, NO
06:00 0 mm +24.7° +26.2° 762 mmHg 66% 3 m/S, NO
07:00 0 mm +25.9° +27.4° 763 mmHg 64% 3 m/S, NO
08:00 0 mm +28.2° +29.5° 762 mmHg 55% 3 m/S, NO
09:00 0 mm +30.5° +31.5° 762 mmHg 47% 3 m/S, NO
10:00 0 mm +32.8° +33.3° 762 mmHg 38% 3 m/S, NO
11:00 0 mm +33.7° +34° 762 mmHg 35% 2 m/S, NO
12:00 0 mm +34.6° +34.6° 761 mmHg 32% 2 m/S, O
13:00 0 mm +35.5° +35.3° 761 mmHg 29% 2 m/S, O
14:00 0 mm +35.4° +35.1° 761 mmHg 29% 2 m/S, O
15:00 0 mm +35.3° +35° 760 mmHg 29% 2 m/S, SO
16:00 0 mm +35.2° +34.9° 760 mmHg 29% 2 m/S, S
17:00 0 mm +32.6° +33.3° 760 mmHg 40% 2 m/S, S
18:00 0 mm +30.1° +31.4° 760 mmHg 50% 2 m/S, W
19:00 0 mm +27.6° +29.2° 760 mmHg 60% 2 m/S, W
20:00 0 mm +26.6° +27.8° 761 mmHg 58% 2 m/S, N
21:00 0 mm +25.5° +26.5° 761 mmHg 57% 2 m/S, N
22:00 0 mm +24.5° +25.2° 761 mmHg 55% 2 m/S, NO
23:00 0 mm +24.3° +24.9° 761 mmHg 55% 3 m/S, NO
Mittwoch, 05 August
Zeit Der Niederschlag Die Temperatur Fühlt Der Druck Die Feuchtigkeit Der Wind
00:00 0 mm +24.1° +24.6° 761 mmHg 54% 3 m/S, NO
01:00 0 mm +23.9° +24.4° 761 mmHg 54% 3 m/S, NO
02:00 0 mm +23.6° +24.1° 761 mmHg 54% 3 m/S, NO
03:00 0 mm +23.4° +23.9° 761 mmHg 55% 3 m/S, NO
04:00 0 mm +23.2° +23.7° 761 mmHg 56% 3 m/S, NO
05:00 0 mm +24.2° +24.9° 761 mmHg 56% 3 m/S, NO
06:00 0 mm +25.3° +26.1° 761 mmHg 56% 3 m/S, NO
07:00 0 mm +26.3° +27.4° 761 mmHg 56% 3 m/S, NO
08:00 0 mm +28.9° +29.7° 761 mmHg 47% 3 m/S, NO
09:00 0 mm +31.6° +31.8° 761 mmHg 38% 3 m/S, NO
10:00 0 mm +34.2° +33.7° 761 mmHg 29% 3 m/S, NO
11:00 0 mm +34.9° +34.3° 761 mmHg 27% 3 m/S, NO

Auch

Meteograms hourly weather Die Wetterkarte Wetterübersicht
Meteograms hourly weather Die Wetterkarte Wetterübersicht

Market


Wetter widget


 
das Wetter in Österreich:
Über das Projekt
© meteoprog.at 2003-2015.
Meteoprog.ua - погода в Украине 0.0964
sitemap